Location: Winnipeg
(49.8830°N, 97.1670°W)
Time: 00:00:49
(UTC-06:00)

ISS - Pass Details

Date: 15 November 2024
Orbit: 411 x 421 km, 51.6° (Epoch: 04 December)

Event Time Altitude Azimuth Distance (km) Brightness Sun altitude
Rises 17:39:24 0° 188° (S) 2,367 0.4 -9.0°
Reaches altitude 10° 17:42:58 10° 148° (SSE) 1,509 -1.1 -9.5°
Maximum altitude 17:43:47 11° 135° (SE) 1,471 -1.3 -9.7°
Drops below altitude 10° 17:44:35 10° 121° (ESE) 1,512 -1.3 -9.8°
Enters shadow 17:45:13 - 111° (ESE) 1,597 -1.3 -9.9°
